Location: Bessay
(46.4435°N, 3.3625°E)
Time: 22:59:08
(UTC+00:00)

Daily predictions for brighter satellites

Satellite Brightness Start Highest point End
(mag) Time Altitude Azimuth Time Altitude Azimuth Time Altitude Azimuth
Unknown 3.6 17:19:30 10° WSW 17:23:39 85° SSE 17:27:49 10° ENE
H-2A R/B 2.9 17:21:58 10° S 17:25:51 81° WSW 17:29:47 10° NNW
Cosmos 1606 Rocket 3.8 17:22:48 10° SSE 17:26:59 46° E 17:31:10 10° NNE
Unknown 3.6 17:22:52 10° WSW 17:27:01 89° SE 17:31:11 10° ENE
Cosmos 1242 Rocket 3.7 17:25:05 10° NNE 17:28:09 24° ENE 17:31:12 10° SE
Starlink (trailer) 3.6 17:24:32 10° WSW 17:28:41 89° N 17:32:51 10° ENE
Ariane Rocket 4.3 17:25:09 10° ESE 17:28:50 20° ENE 17:32:31 10° NNE
Unknown 3.4 17:26:40 10° NW 17:29:08 33° NNE 17:31:37 10° E
Unknown 3.7 17:26:11 10° WSW 17:30:19 87° NNW 17:34:29 10° ENE
Meteor 2-12 Rocket 4.5 17:24:16 10° N 17:30:26 67° E 17:36:33 10° SSE
Cosmos 1703 4.5 17:27:26 10° NNE 17:30:32 22° ENE 17:33:36 10° ESE
Unknown 3.7 17:27:47 10° WSW 17:31:57 86° NNW 17:36:07 10° ENE
Cosmos 2082 Rocket 3.8 17:28:37 10° N 17:32:18 17° NE 17:35:57 10° E
Cosmos 1953 2.3 17:29:52 10° S 17:33:53 63° E 17:37:55 10° NNE
COSMOS 2406 3.8 17:28:59 10° NNW 17:34:24 39° NE 17:39:45 10° ESE
Cosmos 1758 Rocket 3.6 17:30:31 10° N 17:35:00 82° E 17:39:28 10° S
Cosmos 1992 Rocket 4.0 17:30:44 10° S 17:35:52 63° ESE 17:41:03 10° NNE
Unknown 3.7 17:34:21 10° WSW 17:38:29 78° NNW 17:42:39 10° ENE
Unknown 3.7 17:34:30 10° WSW 17:38:39 78° NNW 17:42:48 10° ENE
Cosmos 1503 Rocket 4.0 17:33:41 10° NNW 17:38:54 85° ENE 17:44:04 10° SSE
Cosmos 304 Rocket 4.2 17:34:10 10° SSW 17:38:57 68° WNW 17:43:46 10° NNE
Unknown 3.7 17:35:13 10° WSW 17:39:22 78° NNW 17:43:31 10° ENE
Lacrosse 5 3.1 17:36:03 10° NW 17:40:24 28° NNE 17:44:44 10° ENE
Cosmos 1758 3.9 17:36:34 10° SSW 17:40:30 62° W 17:44:28 10° N
CSL-04 Debris 4.4 17:35:58 10° SE 17:41:10 50° ENE 17:46:28 10° N
Unknown 3.8 17:39:14 10° WSW 17:43:21 73° NNW 17:47:30 10° ENE
Unknown 3.8 17:39:30 10° WSW 17:43:38 74° NNW 17:47:48 10° ENE
Cosmos 2285 Rocket 4.1 17:38:01 10° NNW 17:44:30 88° WSW 17:50:54 10° SSE
Unknown 3.8 17:41:16 10° WSW 17:45:24 70° NNW 17:49:34 10° ENE
Cosmos 839 Rocket 4.2 17:41:15 10° NNW 17:47:20 55° NE 17:54:03 10° SE
FengYun 1-2 T 4.2 17:43:02 10° SSE 17:48:39 72° ENE 17:54:15 10° N
Unknown 3.9 17:44:35 10° WSW 17:48:43 67° NNW 17:52:49 10° ENE
Meteor 2-10 4.4 17:44:17 10° SSE 17:48:58 38° E 17:53:37 10° NNE
Unknown 3.9 17:45:04 10° WSW 17:49:12 68° NNW 17:53:16 10° ENE
Unknown 3.9 17:46:10 10° WSW 17:50:18 68° NNW 17:54:20 11° ENE
SKYMED 2 3.6 17:46:13 10° NNE 17:50:33 63° ESE 17:54:51 10° S
Unknown 4.5 17:48:07 10° W 17:51:49 40° NNW 17:55:25 11° NE
Unknown 3.9 17:49:21 10° WSW 17:53:29 67° NNW 17:57:23 11° ENE
YAOGAN 1 2.6 17:51:15 10° SSE 17:55:29 58° ENE 17:59:46 10° N
Cosmos 1844 Rocket 2.7 17:49:57 10° SSW 17:55:37 88° WNW 18:01:19 10° NNE
Unknown 4.0 17:52:50 10° WSW 17:56:56 62° NNW 18:00:42 12° NE
COBE Rocket 4.0 17:51:57 10° NNE 17:57:10 90° WSW 18:02:16 10° SSW
YAOGAN 6 2.5 17:54:01 10° SSE 17:57:41 74° ENE 18:01:20 10° N
Unknown 4.0 17:54:31 10° WSW 17:58:37 61° NNW 18:02:18 13° NE
H-2A R/B 3.8 17:57:23 13° ENE 17:58:49 14° NE 18:01:37 10° NNE
Unknown 4.0 17:56:11 10° WSW 18:00:18 60° NNW 18:03:54 13° NE
Meteor 1-16 Rocket 4.1 17:55:57 10° S 18:01:29 66° E 18:06:52 10° NNE
Unknown 4.0 17:57:51 10° WSW 18:01:57 59° NNW 18:05:30 13° NE
Cosmos 1939 Rocket 3.5 17:58:32 10° SE 18:02:07 34° ENE 18:05:47 10° N
Lacrosse 5 rocket 1.8 18:00:07 10° WNW 18:03:48 55° SW 18:07:41 10° SSE
Unknown 4.1 18:01:11 10° WSW 18:05:16 56° NNW 18:08:41 14° NE
Cosmos 1908 3.7 18:03:22 10° SSE 18:06:59 37° E 18:10:37 10° NNE
Unknown 4.1 18:02:55 10° WSW 18:07:00 55° NNW 18:10:20 15° NE
Unknown 4.2 18:04:34 10° W 18:08:39 55° NNW 18:11:55 15° NE
Cosmos 1726 Rocket 3.7 18:04:25 10° SSW 18:08:48 81° W 18:13:12 10° N
Unknown 4.2 18:06:10 10° W 18:10:15 54° NNW 18:13:26 16° NE
Unknown 4.2 18:06:41 10° W 18:10:45 53° NNW 18:13:56 16° NE
Cosmos 482 Debris 4.3 18:06:29 10° WNW 18:11:46 77° SSW 18:13:57 20° SE
Unknown 4.2 18:09:21 10° W 18:13:25 54° NNW 18:16:29 17° NE
Cosmos 2278 Rocket 2.8 18:09:23 10° S 18:14:27 35° ESE 18:19:33 10° NE
Shenzhou-11 Module 2.7 18:11:57 10° WSW 18:14:31 35° S 18:15:24 27° SE
Cosmos 1328 3.7 18:12:18 10° N 18:16:19 78° E 18:20:16 10° SSE
Unknown 4.2 18:12:44 10° W 18:16:48 52° NNW 18:19:43 18° NE
CZ-4C R/B 4.2 18:10:35 10° NW 18:17:28 44° WSW 18:25:09 10° S
Cosmos 2228 3.6 18:13:54 10° SSW 18:18:13 60° W 18:22:33 10° N
Unknown 4.2 18:14:23 10° W 18:18:26 51° NNW 18:21:16 18° NE
Cosmos 1844 3.9 18:12:45 10° SSW 18:18:27 76° WNW 18:24:16 10° NNE
Unknown 4.3 18:16:20 10° W 18:20:22 48° NNW 18:23:07 19° NE
Cosmos 2058 Rocket 3.0 18:17:04 10° S 18:21:26 90° WNW 18:25:49 10° N
Cosmos 1339 Rocket 4.5 18:15:48 10° S 18:21:42 57° E 18:27:43 10° NNE
Unknown 4.3 18:17:42 10° W 18:21:45 50° NNW 18:24:27 19° NE
CZ-4 R/B 2.2 18:18:57 10° S 18:23:02 55° W 18:27:12 10° NNW
Unknown 4.3 18:19:25 10° W 18:23:27 49° NNW 18:26:04 20° NE
ATLAS 5 CENTAUR R/B 3.0 18:20:24 10° WSW 18:24:27 37° NW 18:29:01 10° NNE
Envisat 4.2 18:20:00 10° S 18:24:51 45° W 18:29:44 10° NNW
Unknown 4.4 18:22:46 10° W 18:26:47 47° NNW 18:29:16 21° NE
Unknown 4.4 18:24:29 10° W 18:28:29 47° NNW 18:30:53 22° NE
Cosmos 921 Rocket 3.5 18:24:45 10° SSW 18:29:13 67° WNW 18:33:42 10° NNE
Unknown 4.4 18:26:09 10° W 18:30:09 46° NNW 18:32:29 22° NE
Unknown 4.4 18:27:50 10° W 18:31:50 45° NNW 18:34:06 23° NE
Abrixas rocket 3.7 18:31:09 10° SSW 18:32:58 21° SSE 18:32:58 21° SSE
Cosmos 1605 Rocket 3.9 18:27:42 10° N 18:33:58 81° E 18:40:05 10° S
Unknown 4.5 18:31:11 10° W 18:35:10 44° NNW 18:37:16 24° NE
Cosmos 1356 3.7 18:31:51 10° SSW 18:35:15 67° WNW 18:38:42 10° N
Unknown 3.0 18:33:31 10° NW 18:36:36 55° NNE 18:36:50 53° NE
DMSP B5D1-3 4.4 18:32:58 10° NNE 18:38:08 79° ESE 18:43:16 10° S
COSMO-SKYMED 1 3.9 18:34:28 10° N 18:38:35 42° WNW 18:42:40 10° SW
ADEOS Rocket 4.1 18:32:28 10° NNE 18:39:12 32° E 18:45:33 10° SSE
FALCON 9 DEB 4.2 18:36:20 10° NW 18:39:30 31° NNE 18:39:59 30° NNE
CSL-04 Rocket 4.4 18:34:25 10° S 18:39:52 57° WSW 18:45:18 10° NNW
Cosmos 1727 Rocket 4.0 18:35:40 10° S 18:41:40 57° E 18:47:43 10° NNE
Resurs 01 Rocket 3.9 18:45:24 11° NNE 18:45:24 11° NNE 18:45:41 10° NNE
USA 116 4.3 18:40:40 10° N 18:43:41 45° WNW 18:46:49 10° SW
Unknown 4.3 18:41:06 10° NW 18:44:18 31° NNE 18:44:38 30° NNE
NOAA 11 4.2 18:39:49 10° SSE 18:45:16 85° WSW 18:50:45 10° NNW
Unknown 4.1 18:45:03 10° NW 18:48:13 35° NNE 18:48:13 35° NNE
CZ-2D R/B 3.6 18:44:58 10° S 18:48:45 64° WSW 18:52:37 10° NNW
SJ 16-02 3.6 18:46:45 10° NNE 18:47:27 12° NNE 18:47:27 12° NNE
MINOTAUR IV R/B 4.5 18:46:17 10° NNW 18:50:51 77° ENE 18:52:27 40° SE
Cosmos 1726 3.6 18:49:42 10° SW 18:53:08 38° WNW 18:56:35 10° N
SL-4 R/B 4.2 18:51:34 10° W 18:54:08 18° SW 18:56:20 11° S
Cosmos 2173 Rocket 4.2 18:49:05 10° N 18:55:08 47° ENE 18:56:56 37° ESE
Cosmos 2058 4.1 18:52:15 10° N 18:54:46 29° NNE 18:54:46 29° NNE
ARGOS 3.7 18:57:06 37° ENE 18:57:06 37° ENE 19:01:59 10° N
Cosmos 1833 Rocket 2.6 18:51:50 10° NNW 18:57:29 76° ENE 18:59:52 36° SE
BREEZE M DEB (TANK) 2.9 18:55:36 10° WNW 18:58:16 55° SSW 18:59:45 37° SSE
Falcon 9 debris 4.2 18:57:10 10° NW 18:59:57 36° N 18:59:57 36° N
Gbstr 26 Del rocket 4.1 18:59:35 10° WNW 19:05:53 79° NNE 19:08:27 44° ESE
Ariane Rocket 3.4 19:02:17 10° S 19:07:19 63° WSW 19:12:25 10° NNW
Unknown 4.5 19:04:22 10° NW 19:06:59 34° NNW 19:06:59 34° NNW
USA 238 DEB 3.7 19:02:30 10° SSW 19:08:58 55° ESE 19:11:09 40° ENE
USA 238 3.7 19:02:36 10° SSW 19:09:05 55° ESE 19:11:10 40° ENE
SJ-6B 4.4 19:14:19 24° N 19:14:19 24° N 19:15:59 10° N
Cosmos 2100 Rocket 3.8 19:08:13 10° N 19:14:26 69° E 19:16:25 44° SSE
USA 234 4.3 19:17:27 27° SSE 19:17:27 27° SSE 19:21:07 10° S
Cosmos 1000 Rocket 4.5 19:14:23 49° SE 19:15:29 56° E 19:21:34 10° NNE
Cosmos 967 Rocket 4.4 19:09:03 10° NNW 19:15:31 71° NE 19:17:00 53° ESE
Cosmos 2082 Rocket 2.1 19:11:40 10° NNW 19:17:25 76° ENE 19:18:18 62° ESE
SPOT 3 Rocket 3.4 19:19:14 68° ENE 19:19:15 68° ENE 19:24:26 10° N
Cosmos 1812 Rocket 3.8 19:18:48 10° SSW 19:23:12 69° W 19:27:39 10° N
Lacrosse 5 1.9 19:19:06 10° NW 19:23:56 65° NNE 19:23:56 65° NNE
Cosmos 1461 3.6 19:25:04 10° NW 19:28:13 51° NW 19:28:13 51° NW
NOSS 3-2 (A) 3.7 19:29:38 10° SSW 19:33:54 50° S 19:33:54 50° S
H-2A R/B 2.2 19:38:01 69° N 19:38:01 69° N 19:42:47 10° NNW
Cosmos 2016 Rocket 4.0 19:32:26 10° N 19:38:11 65° NE 19:38:11 65° NE
Cosmos 1076 Rocket 4.3 19:35:10 10° NNW 19:39:05 50° WNW 19:39:05 50° WNW
NOSS 3-3 (A) 4.4 19:33:27 10° NW 19:40:58 86° NE 19:42:40 60° SE
NOSS 3-3 (C) 4.4 19:33:33 10° NW 19:41:04 85° NE 19:42:44 61° SE
In-Cosmos 22 Rocket 4.3 19:40:34 10° NNW 19:45:15 68° NNW 19:45:15 68° NNW
Cosmos 2061 Rocket 3.9 19:43:40 10° N 19:49:35 79° NNE 19:49:35 79° NNE
ATLAS CENTAUR R/B 4.3 19:51:57 10° N 19:52:13 10° N 19:52:13 10° N
Cosmos 2278 Rocket 3.3 19:53:06 10° SW 19:58:27 41° NW 20:03:50 10° NNE
CZ-2C R/B 3.9 20:02:00 49° N 20:02:00 49° N 20:06:11 10° NNW
ATLAS 5 CENTAUR R/B 4.4 20:08:06 10° NW 20:10:39 14° NNW 20:11:49 13° N
Resurs 01 Rocket 4.3 20:22:59 14° NNW 20:22:59 14° NNW 20:23:41 10° NNW
ADEOS Rocket 3.9 20:17:27 10° N 20:25:06 62° WNW 20:32:16 10° SSW
SJ 16-02 4.1 20:23:54 10° NNW 20:24:27 13° NNW 20:24:27 13° NNW
